This is the latest recevied weather packets stored in our database for station/object CRYC. If no packets are shown the sender has not sent any weather packets the latest 10 day(s).
| Time | Temp. | Humidity | Pressure | Rain* | Wind** | Luminosity | Snow |
|---|---|---|---|---|---|---|---|
| 1777560671 | 18.89° C | - | - | 0 mm | 0.89 m/s, 356° | - | - |
| 1777560067 | 18.89° C | - | - | 0 mm | 1.79 m/s, 14° | - | - |
| 1777559462 | 17.78° C | - | - | 0 mm | 2.24 m/s, 322° | - | - |
| 1777558857 | 18.33° C | - | - | 0 mm | 2.24 m/s, 357° | - | - |
| 1777558254 | 17.78° C | - | - | 0 mm | 1.79 m/s, 8° | - | - |
| 1777557659 | 16.67° C | - | - | 0 mm | 2.24 m/s, 86° | - | - |
| 1777557045 | 17.22° C | - | - | 0 mm | 0.89 m/s, 326° | - | - |
| 1777556438 | 16.67° C | - | - | 0 mm | 1.79 m/s, 277° | - | - |
| 1777555832 | 17.22° C | - | - | 0 mm | 0.89 m/s, 305° | - | - |
| 1777555228 | 16.11° C | - | - | 0 mm | 1.34 m/s, 300° | - | - |
| 1777554624 | 16.67° C | - | - | 0 mm | 1.79 m/s, 340° | - | - |
| 1777554020 | 16.67° C | - | - | 0 mm | 0.89 m/s, 229° | - | - |
| 1777553412 | 16.67° C | - | - | 0 mm | 1.79 m/s, 312° | - | - |
| 1777552804 | 16.67° C | - | - | 0 mm | 0.89 m/s, 321° | - | - |
| 1777552201 | 16.11° C | - | - | 0 mm | 1.34 m/s, 297° | - | - |
| 1777551600 | 17.22° C | - | - | 0 mm | 1.34 m/s, 316° | - | - |
| 1777550988 | 16.11° C | - | - | 0 mm | 0.45 m/s, 304° | - | - |
| 1777550384 | 15.56° C | - | - | 0 mm | 0 m/s | - | - |
| 1777549773 | 15° C | - | - | 0 mm | 0 m/s | - | - |
| 1777549167 | 14.44° C | - | - | 0 mm | 0 m/s | - | - |
| 1777548562 | 12.78° C | - | - | 0 mm | 0 m/s | - | - |
| 1777547955 | 14.44° C | - | - | 0 mm | 0 m/s | - | - |
| 1777547346 | 14.44° C | - | - | 0 mm | 0 m/s | - | - |
| 1777546137 | 15° C | - | - | 0 mm | 0 m/s | - | - |
| 1777545531 | 11.67° C | - | - | 0 mm | 0 m/s | - | - |
* Rain latest hour (hover to see other rain measurements)
** Current wind speed in m/s (hover to see current wind gust speed)